Home > Weather > Jacksonville > Past weeks

Flag for USA Past Weather in Jacksonville, North Carolina, USA — Yesterday and Last 2 Weeks

Now
86 °F

Scattered clouds.


Feels Like: 94 °F
Forecast: 74 / 84 °F
Wind: 8 mph from Northeast

Location: Jacksonville - New River

Current Time: Aug 28, 2016 at 3:06:28 PM

Latest Report: Aug 28, 2016 at 1:56 PM


Visibility: 10 mi

Pressure: 30.12 "Hg

Humidity: 67%

Dew Point: 74 °F

Location of JacksonvilleLocation

Past Weather in Jacksonville — Graph

°F

Jacksonville Temperature Yesterday

Maximum temperature yesterday: 92 °F (at 1:56 PM)
Minimum temperature yesterday: 72 °F (at 3:56 AM)
Average temperature yesterday: 81 °F

High & Low Weather Summary for the Past Weeks

 TemperatureHumidityPressure
High93 °F (Aug 21, 2:56 PM)97% (Aug 16, 6:56 AM)30.29 "Hg (Aug 16, 6:56 AM)
Low67 °F (Aug 24, 4:56 AM)40% (Aug 24, 11:56 AM)29.82 "Hg (Aug 21, 4:56 PM)
Average81 °F75%30.09 "Hg
* Reported Aug 13 1:56 PM — Aug 28 1:56 PM, Jacksonville, Weather by CustomWeather, © 2016

Note: Actual official high and low records may vary slightly from our data, if they occured in-between our weather recording intervals... More about our weather records

Advertising

Jacksonville Weather History for the Previous 24 Hours

Scroll right to see more
 ConditionsComfort  
Time TempWeatherWind HumidityBarometerVisibility
1:56 PM
Sun, Aug 28
86 °FScattered clouds.8 mph67%30.12 "Hg10 mi
12:56 PM82 °FLight rain. Cloudy.8 mph79%30.14 "Hg9 mi
11:56 AM83 °FScattered clouds.7 mph74%30.14 "Hg10 mi
10:56 AM81 °FOvercast.8 mph79%30.15 "Hg10 mi
9:56 AM80 °FOvercast.9 mph79%30.15 "Hg10 mi
8:56 AM79 °FLow clouds.9 mph84%30.14 "Hg7 mi
7:56 AM76 °FLow clouds.13 mph91%30.12 "Hg7 mi
6:56 AM76 °FLow clouds.8 mph94%30.11 "Hg7 mi
5:56 AM76 °FFog.8 mph94%30.11 "Hg6 mi
4:56 AM77 °FPassing clouds.8 mph90%30.11 "Hg7 mi
3:56 AM77 °FPassing clouds.6 mph94%30.10 "Hg8 mi
2:56 AM78 °FClear.6 mph90%30.11 "Hg8 mi
1:56 AM77 °FPassing clouds.5 mph90%30.12 "Hg8 mi
12:56 AM77 °FClear.6 mph94%30.12 "Hg10 mi
11:56 PM
Sat, Aug 27
78 °FClear.No wind90%30.12 "Hg10 mi
10:56 PM79 °FClear.No wind88%30.13 "Hg10 mi
9:56 PM80 °FPartly cloudy.3 mph87%30.13 "Hg10 mi
8:56 PM81 °FPartly cloudy.No wind82%30.11 "Hg10 mi
7:56 PM81 °FSunny.3 mph79%30.07 "Hg10 mi
6:56 PM84 °FLight rain. Mostly cloudy.7 mph72%30.06 "Hg10 mi
5:56 PM86 °FSunny.10 mph67%30.05 "Hg10 mi
4:56 PM86 °FLight rain. Mostly cloudy.9 mph67%30.06 "Hg10 mi
3:56 PM90 °FPassing clouds.13 mph61%30.06 "Hg10 mi
Weather by CustomWeather, © 2016

See weather overviewHow to use our weather pages